Starlink 1277

operational
NORAD ID: 45369 Int'l Des: 2020-019 Owner: SPXS Country: US Constellation: starlink
LEOCIRCULARSTARLINK_TYPE

Über Starlink 1277

Beschreibung wird geladen...

Live-Position

3D-Globus wird geladen...

Nächste Überflüge

Höhenverlauf

Altitude vs Time

uPlot chart will show altitude changes over time

Zweizeiliger Elementsatz

1 45369U 20019K 25257.32730116 .00002061 00000-0 15715-3 0 9994
2 45369 53.0523 238.9699 0001585 85.1650 274.9520 15.06409337303145
Epoch: 14. Sept. 2025 • Age: 30 hours

Aktueller Status

Höhe 553.0 km
Geschwindigkeit 7.59 km/s
Subsatellitenpunkt -19.68°S, 13.03°E
Startdatum 18. März 2020
Alter 5.4 years
Typ internet

Technische Details

Klassifizierung Payload
Masse 260.00 kg
Trockenmasse 248.00 kg
Gesamtmasse 260.00 kg
Länge 0.20 m
Durchmesser 2.80 m
Spannweite 9.00 m
Form Box + pan
Hersteller SPXS
Bus-Typ Starlink
Phasenstatus In Orbit
Besitzer/Staat SPXS/US

Große Konstellationen

Loading constellations...